This demonstration page uses our WeatherBlox Daily Observations layout. Learn more.

Left ArrowRight Arrow

Hourly Observations for June 20, 2021

Temp ( °F °C ) Dew Point ( °F °C ) Humidity (%) Winds ( mph kmh ) Pressure ( in mb ) Visibility ( mi km ) Precip ( " mm )
12:53 am 00:53 Cloudy 57 13.9 55 12.8 93 93 SW 8 13 29.89 1012 10 16 0.00 0.00
1:53 am 01:53 Cloudy 57 13.9 56 13.3 96 96 SW 7 11 29.91 1013 10 16 N/A
2:53 am 02:53 Mostly Cloudy 57 13.9 55 12.8 93 93 WSW 7 11 29.91 1013 10 16 N/A
3:53 am 03:53 Cloudy 56 13.3 51 10.6 84 84 NW 6 9 29.93 1014 10 16 N/A
4:53 am 04:53 Cloudy 55 12.8 52 11.1 90 90 WSW 6 9 29.95 1014 10 16 N/A
5:53 am 05:53 Mostly Cloudy 54 12.2 52 11.1 93 93 W 5 7 29.98 1015 10 16 N/A
6:53 am 06:53 Cloudy 59 15 51 10.6 75 75 N N/A 30.00 1016 10 16 N/A
7:53 am 07:53 Mostly Cloudy 61 16.1 50 10 67 67 NNE 6 9 30.03 1017 10 16 N/A
8:53 am 08:53 Mostly Sunny 64 17.8 50 10 60 60 VRB 3 6 30.04 1017 10 16 N/A
9:53 am 09:53 Mostly Cloudy 68 20 47 8.3 47 47 NNE 12 19 30.05 1018 10 16 N/A
10:53 am 10:53 Mostly Sunny 66 18.9 43 6.1 43 43 N 12 19 30.06 1018 10 16 N/A
11:53 am 11:53 Partly Cloudy 72 22.2 43 6.1 35 35 N 16 26 30.06 1018 10 16 N/A
12:53 pm 12:53 Cloudy 65 18.3 47 8.3 52 52 NNE 14 22 30.10 1019 10 16 N/A
1:53 pm 13:53 Cloudy with Light Rain 65 18.3 49 9.4 56 56 SW 9 15 30.10 1019 10 16 0.00 0.00
2:53 pm 14:53 Mostly Cloudy 70 21.1 45 7.2 41 41 VRB 3 6 30.09 1019 10 16 0.01 0.25
3:53 pm 15:53 Mostly Cloudy 75 23.9 38 3.3 26 26 N 13 20 30.08 1019 10 16 N/A
4:53 pm 16:53 Cloudy 74 23.3 37 2.8 26 26 NNW 17 28 30.09 1019 10 16 N/A
5:53 pm 17:53 Mostly Cloudy 73 22.8 35 1.7 25 25 N 10 17 30.09 1019 10 16 N/A
6:53 pm 18:53 Mostly Sunny 73 22.8 36 2.2 26 26 N 16 26 30.08 1019 10 16 N/A
7:53 pm 19:53 Mostly Sunny 71 21.7 39 3.9 31 31 N 12 19 30.09 1019 10 16 N/A
8:53 pm 20:53 Sunny 66 18.9 40 4.4 39 39 NNE 3 6 30.10 1019 10 16 N/A
9:53 pm 21:53 Clear 59 15 41 5 51 51 N N/A 30.11 1020 10 16 N/A
10:53 pm 22:53 Clear 51 10.6 41 5 69 69 ESE 3 6 30.13 1020 10 16 N/A
11:53 pm 23:53 Clear 48 8.9 40 4.4 74 74 S 5 7 30.13 1020 10 16 N/A

Powered by AerisWeather